KD8BMB Weather Reports


time (UTC)temp
C
wind
direction
speed
KPH
gust
KPH
rain 1hr
cm
rain 24hr
cm
rain mn
cm
humidity
%
barometer
mb
20260507185654 10 252 4.8 4.8 0.00 0.00 0.00 48 1011.5
20260507185150 10 309 0.0 1.6 0.00 0.00 0.00 48 1011.9
20260507184648 10 329 8.0 9.7 0.00 0.00 0.00 46 1011.6
20260507184146 11 304 8.0 9.7 0.00 0.00 0.00 47 1012.0
20260507183642 11 215 3.2 8.0 0.00 0.00 0.00 46 1011.7
20260507183139 11 275 3.2 4.8 0.00 0.00 0.00 49 1011.9
20260507182636 10 253 11.3 14.5 0.00 0.00 0.00 49 1011.9
20260507182132 10 256 9.7 12.9 0.00 0.00 0.00 49 1011.8
20260507181628 10 328 1.6 1.6 0.00 0.00 0.00 50 1012.1
20260507181125 10 233 8.0 12.9 0.00 0.00 0.00 49 1012.2
20260507180621 10 281 8.0 11.3 0.00 0.00 0.00 50 1012.2
20260507180119 10 271 9.7 12.9 0.00 0.00 0.00 51 1012.3
20260507175614 9 220 9.7 14.5 0.00 0.00 0.00 51 1012.2
20260507175112 10 275 4.8 8.0 0.00 0.00 0.00 50 1012.3
20260507174609 10 294 4.8 4.8 0.00 0.00 0.00 49 1012.2
20260507174107 10 286 3.2 8.0 0.00 0.00 0.00 50 1012.1
20260507173604 9 2 1.6 3.2 0.00 0.00 0.00 53 1012.6
20260507173100 9 329 4.8 4.8 0.00 0.00 0.00 53 1012.5
20260507172556 10 273 4.8 4.8 0.00 0.00 0.00 52 1012.4
20260507172054 10 324 0.0 1.6 0.00 0.00 0.00 52 1012.6
20260507171549 10 214 1.6 3.2 0.00 0.00 0.00 53 1012.7
20260507171046 10 290 11.3 14.5 0.00 0.00 0.00 51 1012.7
20260507170543 10 266 4.8 4.8 0.00 0.00 0.00 53 1012.6
20260507170040 10 215 12.9 16.1 0.00 0.00 0.00 52 1012.6
20260507165535 10 255 8.0 9.7 0.00 0.00 0.00 53 1012.6
20260507165032 10 214 3.2 3.2 0.00 0.00 0.00 52 1012.7
20260507164528 10 271 8.0 9.7 0.00 0.00 0.00 51 1012.7
20260507164026 10 267 4.8 8.0 0.00 0.00 0.00 53 1012.5
20260507163522 10 193 8.0 9.7 0.00 0.00 0.00 51 1012.6
20260507163021 10 301 3.2 4.8 0.00 0.00 0.00 51 1013.2
20260507162515 10 294 4.8 8.0 0.00 0.00 0.00 51 1013.0
20260507162012 10 317 3.2 4.8 0.00 0.00 0.00 50 1012.9
20260507161509 10 299 9.7 12.9 0.00 0.00 0.00 52 1012.9
20260507161006 10 262 6.4 9.7 0.00 0.00 0.00 53 1013.2
20260507160501 10 227 8.0 11.3 0.00 0.00 0.00 53 1013.2
20260507155957 10 281 6.4 8.0 0.00 0.00 0.00 51 1013.0
20260507155453 9 210 8.0 9.7 0.00 0.00 0.00 53 1013.2
20260507154950 9 270 14.5 17.7 0.00 0.00 0.00 53 1012.7
20260507154447 10 306 3.2 4.8 0.00 0.00 0.00 56 1013.1
20260507153944 10 217 8.0 12.9 0.00 0.00 0.00 56 1013.0
20260507153441 9 262 11.3 14.5 0.00 0.00 0.00 54 1013.2
20260507152937 10 191 14.5 20.9 0.00 0.00 0.00 54 1013.0
20260507152433 10 198 4.8 8.0 0.00 0.00 0.00 58 1013.0
20260507151930 10 209 6.4 9.7 0.00 0.00 0.00 56 1012.9
20260507151426 10 260 4.8 4.8 0.00 0.00 0.00 58 1013.0
20260507150923 9 244 1.6 3.2 0.00 0.00 0.00 60 1013.0
20260507150420 10 214 6.4 9.7 0.00 0.00 0.00 60 1013.0
20260507145916 10 12 8.0 12.9 0.00 0.00 0.00 61 1012.9
20260507145412 10 284 4.8 8.0 0.00 0.00 0.00 61 1013.0
20260507144909 10 330 14.5 16.1 0.00 0.00 0.00 59 1012.6
20260507144406 10 305 8.0 9.7 0.00 0.00 0.00 59 1012.6
20260507143903 10 333 4.8 4.8 0.00 0.00 0.00 60 1012.6
20260507143401 10 287 4.8 9.7 0.00 0.00 0.00 58 1012.7
20260507142857 10 292 3.2 3.2 0.00 0.00 0.00 57 1012.6
20260507142353 10 339 8.0 9.7 0.00 0.00 0.00 58 1012.6
20260507141850 10 245 4.8 4.8 0.00 0.00 0.00 56 1012.6
20260507141346 10 327 4.8 9.7 0.00 0.00 0.00 57 1012.9
20260507140843 10 308 12.9 14.5 0.00 0.00 0.00 55 1012.6
20260507140340 10 285 8.0 9.7 0.00 0.00 0.00 56 1012.7
20260507135838 10 266 1.6 3.2 0.00 0.00 0.00 60 1012.7
20260507135334 10 249 3.2 4.8 0.00 0.00 0.00 59 1012.7
20260507134832 10 228 1.6 3.2 0.00 0.00 0.00 59 1013.0
20260507134328 8 265 1.6 1.6 0.00 0.00 0.00 62 1012.9
20260507133824 9 281 1.6 1.6 0.00 0.00 0.00 62 1012.9
20260507133319 8 244 4.8 8.0 0.00 0.00 0.00 63 1013.0
20260507132818 8 273 3.2 3.2 0.00 0.00 0.00 64 1012.9
20260507132314 9 287 1.6 1.6 0.00 0.00 0.00 64 1012.9
20260507131812 9 278 0.0 0.0 0.00 0.00 0.00 65 1012.9
20260507131308 8 259 3.2 3.2 0.00 0.00 0.00 67 1012.6
20260507130805 8 274 4.8 4.8 0.00 0.00 0.00 68 1012.9
20260507130303 7 322 0.0 1.6 0.00 0.00 0.00 71 1012.9
20260507125801 7 289 4.8 4.8 0.00 0.00 0.00 72 1013.1
20260507125258 7 277 1.6 3.2 0.00 0.00 0.00 73 1012.9
20260507124755 7 201 1.6 1.6 0.00 0.00 0.00 76 1012.9
20260507124251 6 327 0.0 0.0 0.00 0.00 0.00 77 1012.9
20260507123750 6 254 1.6 3.2 0.00 0.00 0.00 78 1012.6
20260507123247 6 300 1.6 1.6 0.00 0.00 0.00 80 1012.7
20260507122743 5 311 0.0 0.0 0.00 0.00 0.00 82 1013.0
20260507122238 5 258 0.0 0.0 0.00 0.00 0.00 82 1013.1
20260507121734 4 284 0.0 0.0 0.00 0.00 0.00 84 1012.9
20260507121230 4 287 0.0 0.0 0.00 0.00 0.00 84 1012.9
20260507120727 4 265 0.0 0.0 0.00 0.00 0.00 84 1012.9
20260507120224 4 278 0.0 0.0 0.00 0.00 0.00 85 1013.0
20260507115720 3 287 1.6 1.6 0.00 0.00 0.00 86 1013.0
20260507115216 3 283 0.0 0.0 0.00 0.00 0.00 89 1012.6
20260507114711 3 296 0.0 0.0 0.00 0.00 0.00 94 1013.0
20260507114209 2 292 0.0 0.0 0.00 0.00 0.00 96 1012.9
20260507113706 2 288 0.0 0.0 0.00 0.00 0.00 97 1012.9
20260507113203 2 303 0.0 0.0 0.00 0.00 0.00 98 1012.7
20260507112701 2 303 0.0 0.0 0.00 0.00 0.00 98 1013.0
20260507112158 1 294 0.0 0.0 0.00 0.00 0.00 98 1012.6
20260507111655 1 290 0.0 0.0 0.00 0.00 0.00 99 1012.6
20260507111152 1 291 0.0 0.0 0.00 0.00 0.00 99 1012.6
20260507110647 1 284 0.0 0.0 0.00 0.00 0.00 99 1012.6
20260507110144 1 279 0.0 0.0 0.00 0.00 0.00 99 1012.4
20260507105641 1 278 0.0 0.0 0.00 0.00 0.00 99 1012.3
20260507105137 0 286 0.0 0.0 0.00 0.00 0.00 99 1012.4
20260507104635 0 318 0.0 0.0 0.00 0.00 0.00 98 1012.4
20260507104131 0 325 0.0 0.0 0.00 0.00 0.00 98 1012.3
20260507103627 0 283 0.0 0.0 0.00 0.00 0.00 98 1012.5
20260507103124 1 283 0.0 0.0 0.00 0.00 0.00 98 1012.6
20260507102621 1 282 0.0 0.0 0.00 0.00 0.00 98 1012.3
20260507102117 1 297 0.0 0.0 0.00 0.00 0.00 97 1012.4
20260507101613 1 300 0.0 0.0 0.00 0.00 0.00 97 1012.4
20260507101109 1 306 0.0 0.0 0.00 0.00 0.00 97 1012.3
20260507100606 1 317 0.0 0.0 0.00 0.00 0.00 97 1012.3
20260507100104 1 303 0.0 0.0 0.00 0.00 0.00 96 1012.3
20260507095602 1 38 0.0 0.0 0.00 0.00 0.00 96 1012.1
20260507095058 1 355 0.0 0.0 0.00 0.00 0.00 96 1012.4
20260507094554 1 307 0.0 0.0 0.00 0.00 0.00 95 1012.3
20260507094051 1 325 0.0 0.0 0.00 0.00 0.00 95 1012.3
20260507093549 1 317 0.0 0.0 0.00 0.00 0.00 95 1012.4
20260507093048 1 300 0.0 0.0 0.00 0.00 0.00 94 1012.4
20260507092544 1 259 0.0 0.0 0.00 0.00 0.00 94 1012.3
20260507092040 2 284 0.0 0.0 0.00 0.00 0.00 93 1012.2
20260507091537 2 283 0.0 0.0 0.00 0.00 0.00 93 1012.3
20260507091033 2 285 0.0 0.0 0.00 0.00 0.00 92 1012.5
20260507090529 2 297 0.0 0.0 0.00 0.00 0.00 92 1012.3
20260507090026 2 23 0.0 0.0 0.00 0.00 0.00 92 1012.5
20260507085523 2 312 0.0 0.0 0.00 0.00 0.00 92 1012.4
20260507085020 2 318 0.0 0.0 0.00 0.00 0.00 92 1012.5
20260507084517 2 355 0.0 0.0 0.00 0.00 0.00 92 1012.6
20260507084014 2 32 0.0 0.0 0.00 0.00 0.00 92 1012.5
20260507083510 2 296 0.0 0.0 0.00 0.00 0.00 92 1012.7
20260507083007 2 296 0.0 0.0 0.00 0.00 0.00 92 1012.7
20260507082503 2 296 0.0 0.0 0.00 0.00 0.00 92 1012.6
20260507081959 2 296 0.0 0.0 0.00 0.00 0.00 91 1012.6
20260507081455 2 296 0.0 0.0 0.00 0.00 0.00 91 1012.6
20260507080953 2 291 0.0 0.0 0.00 0.00 0.00 91 1012.7
20260507080448 2 285 0.0 0.0 0.00 0.00 0.00 91 1012.6
20260507075944 1 292 0.0 0.0 0.00 0.00 0.00 92 1012.4
20260507075441 1 293 0.0 0.0 0.00 0.00 0.00 92 1012.5
20260507074937 2 295 0.0 0.0 0.00 0.00 0.00 92 1012.6
20260507074433 2 304 0.0 0.0 0.00 0.00 0.00 91 1012.5
20260507073931 2 338 0.0 0.0 0.00 0.00 0.00 91 1012.7
20260507073422 2 336 0.0 0.0 0.00 0.00 0.00 91 1012.6
20260507072919 2 287 0.0 0.0 0.00 0.00 0.00 90 1012.4
20260507072417 2 287 0.0 0.0 0.00 0.00 0.00 89 1012.6
20260507071915 2 284 0.0 0.0 0.00 0.00 0.00 89 1012.7
20260507071411 2 284 0.0 0.0 0.00 0.00 0.00 89 1012.6
20260507070907 2 32 0.0 0.0 0.00 0.00 0.00 89 1012.4
20260507070405 2 28 0.0 0.0 0.00 0.00 0.00 90 1012.5
20260507065902 2 326 0.0 0.0 0.00 0.00 0.00 89 1012.5
20260507065358 2 31 0.0 0.0 0.00 0.00 0.00 90 1012.5
20260507064855 2 302 0.0 0.0 0.00 0.00 0.00 89 1012.4
20260507064354 2 293 0.0 0.0 0.00 0.00 0.00 89 1012.7
20260507063851 2 278 0.0 0.0 0.00 0.00 0.00 89 1012.5
20260507063348 2 264 0.0 0.0 0.00 0.00 0.00 88 1012.5
20260507062845 2 307 0.0 0.0 0.00 0.00 0.00 88 1013.0
20260507062341 2 323 0.0 0.0 0.00 0.00 0.00 87 1012.6
20260507061839 2 306 0.0 0.0 0.00 0.00 0.00 87 1012.7
20260507061337 3 305 0.0 0.0 0.00 0.00 0.00 86 1012.6
20260507060836 3 283 0.0 0.0 0.00 0.00 0.00 86 1012.7
20260507060332 3 302 0.0 0.0 0.00 0.00 0.00 85 1012.7
20260507055829 3 328 0.0 0.0 0.00 0.00 0.00 83 1012.9
20260507055324 3 322 0.0 0.0 0.00 0.00 0.00 82 1012.7
20260507054821 3 39 0.0 1.6 0.00 0.00 0.00 82 1012.6
20260507054316 4 267 0.0 0.0 0.00 0.00 0.00 81 1012.6
20260507053814 4 265 0.0 0.0 0.00 0.00 0.00 81 1012.7
20260507053312 4 276 0.0 0.0 0.00 0.00 0.00 80 1012.7
20260507052811 4 267 0.0 0.0 0.00 0.00 0.00 79 1012.7
20260507052307 5 343 0.0 0.0 0.00 0.00 0.00 78 1012.7
20260507051805 5 284 0.0 0.0 0.00 0.00 0.00 77 1012.7
20260507051302 5 284 0.0 0.0 0.00 0.00 0.00 76 1012.9
20260507050758 5 284 0.0 0.0 0.00 0.00 0.00 74 1012.7
20260507050255 5 285 0.0 0.0 0.00 0.00 0.00 72 1012.9
20260507045751 6 285 0.0 0.0 0.00 0.00 0.00 72 1013.0
20260507045248 6 284 0.0 0.0 0.00 0.00 0.00 70 1012.7
20260507044746 6 285 0.0 0.0 0.00 0.00 0.00 68 1012.6
20260507044242 6 285 0.0 0.0 0.00 0.00 0.00 66 1012.7
20260507043738 6 298 0.0 0.0 0.00 0.00 0.00 64 1012.7
20260507043235 7 298 0.0 0.0 0.00 0.00 0.00 64 1012.6
20260507042731 7 299 0.0 0.0 0.00 0.00 0.00 64 1013.0
20260507042226 7 302 0.0 0.0 0.00 0.00 0.00 62 1012.7
20260507041724 7 303 0.0 0.0 0.00 0.00 0.00 62 1012.7
20260507041221 7 263 0.0 0.0 0.00 0.00 0.00 61 1013.0
20260507040718 7 349 0.0 0.0 0.00 0.00 0.00 62 1012.9
20260507040214 7 319 0.0 0.0 0.00 0.00 0.00 61 1012.7
20260507035710 8 4 0.0 0.0 0.00 0.00 0.00 59 1012.6
20260507035205 8 287 0.0 0.0 0.00 0.00 0.00 58 1012.9
20260507034702 8 256 0.0 0.0 0.00 0.00 0.00 58 1012.9
20260507034200 8 305 0.0 0.0 0.00 0.00 0.00 57 1013.0
20260507033658 8 284 1.6 1.6 0.00 0.00 0.00 57 1013.0
20260507033155 8 264 1.6 1.6 0.00 0.00 0.00 57 1013.0
20260507032653 8 308 1.6 1.6 0.00 0.00 0.00 57 1012.7
20260507032148 8 288 1.6 3.2 0.00 0.00 0.00 56 1012.5
20260507031645 8 285 1.6 1.6 0.00 0.00 0.00 58 1012.7
20260507031142 8 271 0.0 0.0 0.00 0.00 0.00 58 1012.7
20260507030639 8 300 0.0 0.0 0.00 0.00 0.00 57 1012.7
20260507030137 8 249 0.0 0.0 0.00 0.00 0.00 57 1012.6
20260507025633 8 285 0.0 0.0 0.00 0.00 0.00 57 1012.9
20260507025130 8 240 1.6 1.6 0.00 0.00 0.00 56 1012.6
20260507024628 8 270 3.2 3.2 0.00 0.00 0.00 55 1012.7
20260507024125 8 288 1.6 1.6 0.00 0.00 0.00 56 1012.7
20260507023621 8 283 0.0 0.0 0.00 0.00 0.00 55 1012.4
20260507023119 8 283 0.0 0.0 0.00 0.00 0.00 55 1012.6
20260507022615 8 278 1.6 1.6 0.00 0.00 0.00 54 1012.6
20260507022110 8 287 1.6 1.6 0.00 0.00 0.00 55 1012.5
20260507021607 9 257 1.6 1.6 0.00 0.00 0.00 54 1012.5
20260507021103 9 280 1.6 1.6 0.00 0.00 0.00 55 1012.2
20260507020602 9 297 0.0 0.0 0.00 0.00 0.00 54 1012.4
20260507020057 9 284 1.6 1.6 0.00 0.00 0.00 55 1012.2
20260507015555 9 238 3.2 3.2 0.00 0.00 0.00 55 1012.3
20260507015047 9 230 1.6 1.6 0.00 0.00 0.00 56 1012.3
20260507014543 9 281 0.0 1.6 0.00 0.00 0.00 57 1012.2
20260507014033 9 245 1.6 1.6 0.00 0.00 0.00 56 1012.1
20260507013530 9 227 1.6 1.6 0.00 0.00 0.00 57 1012.3
20260507013027 9 261 0.0 0.0 0.00 0.00 0.00 57 1012.1
20260507012524 9 278 0.0 0.0 0.00 0.00 0.00 57 1012.0
20260507012020 9 271 0.0 0.0 0.00 0.00 0.00 57 1012.0
20260507011518 9 266 0.0 0.0 0.00 0.00 0.00 57 1012.1
20260507011014 9 269 0.0 0.0 0.00 0.00 0.00 58 1012.0
20260507010509 9 269 0.0 0.0 0.00 0.00 0.00 58 1012.0
20260507010006 9 238 0.0 0.0 0.00 0.00 0.00 57 1011.9
20260507005503 10 281 0.0 0.0 0.00 0.00 0.00 57 1012.0
20260507004959 10 261 0.0 0.0 0.00 0.00 0.00 57 1011.8
20260507004456 10 244 0.0 0.0 0.00 0.00 0.00 55 1012.0
20260507003954 10 284 0.0 0.0 0.00 0.00 0.00 56 1011.9
20260507003448 10 276 0.0 0.0 0.00 0.00 0.00 55 1012.0
20260507002944 10 277 0.0 0.0 0.00 0.00 0.00 56 1012.0
20260507002441 10 311 0.0 0.0 0.00 0.00 0.00 55 1011.9
20260507001938 10 319 1.6 1.6 0.00 0.00 0.00 52 1011.9
20260507001434 10 317 0.0 0.0 0.00 0.00 0.00 52 1011.9
20260507000932 10 305 0.0 0.0 0.00 0.00 0.00 53 1011.8
20260507000427 10 309 0.0 0.0 0.00 0.00 0.00 52 1011.6
20260506235923 10 292 4.8 8.0 0.00 0.00 0.00 51 1011.8
20260506235420 10 222 1.6 1.6 0.00 0.00 0.00 51 1011.7
20260506234910 10 277 0.0 0.0 0.00 0.00 0.00 51 1011.8
20260506234409 10 263 0.0 0.0 0.00 0.00 0.00 51 1011.5
20260506233906 10 242 3.2 3.2 0.00 0.00 0.00 51 1011.7
20260506233401 10 221 4.8 4.8 0.00 0.00 0.00 50 1011.7
20260506232859 10 206 6.4 8.0 0.00 0.00 0.00 48 1011.8
20260506232354 10 207 4.8 4.8 0.00 0.00 0.00 49 1011.9
20260506231851 10 320 3.2 4.8 0.00 0.00 0.00 50 1011.6
20260506231349 10 288 4.8 8.0 0.00 0.00 0.00 50 1011.6
20260506230846 10 226 3.2 3.2 0.00 0.00 0.00 49 1011.7
20260506230342 10 253 3.2 4.8 0.00 0.00 0.00 50 1011.9
20260506225838 10 222 3.2 3.2 0.00 0.00 0.00 50 1011.7
20260506225336 11 237 4.8 8.0 0.00 0.00 0.00 50 1011.6
20260506224833 11 203 1.6 1.6 0.00 0.00 0.00 51 1011.7
20260506224330 11 245 1.6 1.6 0.00 0.00 0.00 49 1011.8
20260506223826 11 235 4.8 4.8 0.00 0.00 0.00 49 1011.8
20260506223321 11 216 1.6 3.2 0.00 0.00 0.00 51 1012.0
20260506222819 11 214 8.0 9.7 0.00 0.00 0.00 49 1012.0
20260506222313 11 205 8.0 9.7 0.00 0.00 0.00 49 1012.2
20260506221807 11 281 3.2 8.0 0.00 0.00 0.00 50 1012.1
20260506221304 11 218 4.8 8.0 0.00 0.00 0.00 49 1012.1
20260506220802 11 286 0.0 1.6 0.00 0.00 0.00 49 1012.0
20260506220256 11 217 3.2 3.2 0.00 0.00 0.00 49 1012.0
20260506215753 11 291 12.9 16.1 0.00 0.00 0.00 48 1011.8
20260506215249 11 283 1.6 3.2 0.00 0.00 0.00 49 1012.0
20260506214745 11 232 1.6 4.8 0.00 0.00 0.00 49 1012.0
20260506214242 11 218 4.8 4.8 0.00 0.00 0.00 49 1012.0
20260506213741 11 294 4.8 8.0 0.00 0.00 0.00 49 1011.9
20260506213237 11 283 4.8 9.7 0.00 0.00 0.00 49 1011.9
20260506212735 11 289 4.8 9.7 0.00 0.00 0.00 48 1011.8
20260506212231 11 312 1.6 3.2 0.00 0.00 0.00 49 1012.1
20260506211725 11 273 0.0 1.6 0.00 0.00 0.00 50 1011.9
20260506211222 11 241 6.4 8.0 0.00 0.00 0.00 49 1012.0
20260506210719 11 236 4.8 4.8 0.00 0.00 0.00 48 1011.7
20260506210216 11 246 3.2 3.2 0.00 0.00 0.00 48 1011.9
20260506205713 11 312 4.8 4.8 0.00 0.00 0.00 49 1012.0
20260506205208 11 241 1.6 3.2 0.00 0.00 0.00 49 1011.9
20260506204706 11 231 1.6 8.0 0.00 0.00 0.00 48 1011.9
20260506204203 11 298 3.2 3.2 0.00 0.00 0.00 48 1011.9
20260506203701 11 283 4.8 8.0 0.00 0.00 0.00 47 1011.9
20260506203158 11 208 1.6 3.2 0.00 0.00 0.00 47 1012.1
20260506202656 11 234 0.0 0.0 0.00 0.00 0.00 47 1012.1
20260506202151 11 234 1.6 1.6 0.00 0.00 0.00 49 1012.0
20260506201649 11 206 6.4 8.0 0.00 0.00 0.00 48 1012.1
20260506201145 11 240 1.6 1.6 0.00 0.00 0.00 48 1012.2
20260506200642 11 311 4.8 4.8 0.00 0.00 0.00 48 1012.1
20260506200138 11 246 0.0 1.6 0.00 0.00 0.00 49 1012.3
20260506195635 11 246 4.8 8.0 0.00 0.00 0.00 49 1012.4
20260506195131 11 330 3.2 3.2 0.00 0.00 0.00 48 1012.0
20260506194629 11 271 1.6 1.6 0.00 0.00 0.00 49 1012.2
20260506194125 11 321 8.0 9.7 0.00 0.00 0.00 47 1012.4
20260506193623 10 278 1.6 4.8 0.00 0.00 0.00 48 1012.4
20260506193120 10 249 0.0 0.0 0.00 0.00 0.00 48 1012.5
20260506192617 10 327 6.4 8.0 0.00 0.00 0.00 50 1012.6
20260506192113 10 356 4.8 4.8 0.00 0.00 0.00 50 1012.5
20260506191609 10 323 4.8 8.0 0.00 0.00 0.00 50 1012.3
20260506191105 11 355 8.0 9.7 0.00 0.00 0.00 47 1012.6
20260506190603 11 294 6.4 8.0 0.00 0.00 0.00 48 1012.6
20260506190100 10 288 9.7 14.5 0.00 0.00 0.00 49 1012.6